SWA112 KHOU-MROC

Flight info

Callsign SWA112
Flight time N/A
Altitude 37000
Route PEECE6 ANKRR L208 DUTNA UL208 MID UB753 DUSLO/N0452F390 UB753 TUGET DCT PIKRO UB753 BZE UZ512 LIB BARRA3L
Aircraft B38M/M-SDE1FGHILORVWXY/HB1

Departure

Time N/A
Airport William P. Hobby Airport (KHOU)

Arrival

Time 2026-05-08 02:59
Airport Juan Santamaría International Airport (MROC)
Time Latitude Longitude Altitude Speed Heading
2026-05-08 00:45 24.02977 -91.10753 36935 ft 468 kts 161°
2026-05-08 00:46 23.99989 -91.09315 36933 ft 468 kts 161°
2026-05-08 00:46 23.94034 -91.06453 36940 ft 468 kts 161°
2026-05-08 00:47 23.88074 -91.03590 36936 ft 468 kts 161°
2026-05-08 00:47 23.82115 -91.00731 36932 ft 468 kts 161°
2026-05-08 00:48 23.76151 -90.97872 36934 ft 468 kts 161°
2026-05-08 00:48 23.70183 -90.95015 36930 ft 468 kts 161°
2026-05-08 00:49 23.64213 -90.92159 36930 ft 469 kts 161°
2026-05-08 00:49 23.58236 -90.89302 36932 ft 469 kts 161°
2026-05-08 00:50 23.52261 -90.86450 36929 ft 469 kts 161°
2026-05-08 00:50 23.46279 -90.83597 36929 ft 469 kts 161°
2026-05-08 00:51 23.40294 -90.80746 36928 ft 469 kts 161°
2026-05-08 00:51 23.34306 -90.77895 36929 ft 470 kts 160°
2026-05-08 00:52 23.28318 -90.75048 36926 ft 470 kts 160°
2026-05-08 00:52 23.22330 -90.72202 36927 ft 470 kts 160°
2026-05-08 00:53 23.16376 -90.69376 36926 ft 470 kts 160°
2026-05-08 00:53 23.10380 -90.66532 36925 ft 470 kts 160°
2026-05-08 00:54 23.04383 -90.63690 36919 ft 470 kts 160°
2026-05-08 00:54 22.98382 -90.60850 36923 ft 470 kts 160°
2026-05-08 00:55 22.92384 -90.58014 36925 ft 470 kts 160°
2026-05-08 00:55 22.86380 -90.55177 36926 ft 471 kts 160°
2026-05-08 00:56 22.80375 -90.52344 36923 ft 471 kts 160°
2026-05-08 00:56 22.74373 -90.49514 36922 ft 471 kts 160°
2026-05-08 00:57 22.68364 -90.46683 36921 ft 471 kts 160°
2026-05-08 00:57 22.62358 -90.43856 36919 ft 471 kts 160°
2026-05-08 00:58 22.56352 -90.41033 36916 ft 471 kts 160°
2026-05-08 00:58 22.50343 -90.38213 36912 ft 471 kts 160°
2026-05-08 00:59 22.44373 -90.35415 36915 ft 470 kts 160°
2026-05-08 00:59 22.38369 -90.32604 36911 ft 470 kts 160°
2026-05-08 01:00 22.32368 -90.29796 36911 ft 470 kts 160°
2026-05-08 01:00 22.26364 -90.26986 36912 ft 470 kts 160°
2026-05-08 01:01 22.20366 -90.24182 36903 ft 470 kts 160°
2026-05-08 01:01 22.14372 -90.21383 36906 ft 470 kts 160°
2026-05-08 01:02 22.08372 -90.18584 36904 ft 469 kts 160°
2026-05-08 01:02 22.02377 -90.15789 36901 ft 469 kts 159°
2026-05-08 01:03 21.96384 -90.12997 36904 ft 469 kts 159°
2026-05-08 01:03 21.90390 -90.10209 36899 ft 469 kts 159°
2026-05-08 01:04 21.84395 -90.07422 36893 ft 469 kts 159°
2026-05-08 01:04 21.78401 -90.04638 36894 ft 469 kts 159°
2026-05-08 01:05 21.72407 -90.01856 36898 ft 469 kts 159°
2026-05-08 01:05 21.66417 -89.99081 36893 ft 469 kts 159°
2026-05-08 01:06 21.60429 -89.96309 36889 ft 469 kts 159°
2026-05-08 01:06 21.54438 -89.93538 36885 ft 469 kts 159°
2026-05-08 01:07 21.48488 -89.90789 36884 ft 469 kts 159°
2026-05-08 01:07 21.42498 -89.88024 36883 ft 469 kts 159°
2026-05-08 01:08 21.36507 -89.85260 36882 ft 468 kts 159°
2026-05-08 01:08 21.30518 -89.82500 36883 ft 468 kts 159°
2026-05-08 01:09 21.24541 -89.79746 36875 ft 468 kts 159°
2026-05-08 01:09 21.18563 -89.76994 36867 ft 468 kts 159°
2026-05-08 01:10 21.12584 -89.74244 36858 ft 467 kts 159°
2026-05-08 01:10 21.06612 -89.71500 36855 ft 467 kts 159°
2026-05-08 01:11 21.00624 -89.68751 36858 ft 468 kts 158°
2026-05-08 01:11 20.95617 -89.66453 36822 ft 467 kts 159°
2026-05-08 01:12 20.89559 -89.63979 36854 ft 467 kts 161°
2026-05-08 01:12 20.83521 -89.61541 36845 ft 467 kts 161°
2026-05-08 01:13 20.77455 -89.59087 36856 ft 467 kts 161°
2026-05-08 01:13 20.71381 -89.56632 36861 ft 467 kts 161°
2026-05-08 01:14 20.65306 -89.54179 36866 ft 467 kts 161°
2026-05-08 01:14 20.59232 -89.51727 36873 ft 467 kts 161°
2026-05-08 01:15 20.53157 -89.49278 36874 ft 467 kts 161°
2026-05-08 01:15 20.47080 -89.46831 36876 ft 467 kts 161°
2026-05-08 01:16 20.41000 -89.44389 36874 ft 467 kts 161°
2026-05-08 01:16 20.34927 -89.41945 36876 ft 467 kts 160°
2026-05-08 01:17 20.28848 -89.39497 36884 ft 467 kts 160°
2026-05-08 01:17 20.22770 -89.37051 36884 ft 467 kts 160°
2026-05-08 01:18 20.16694 -89.34609 36887 ft 467 kts 160°
2026-05-08 01:18 20.10609 -89.32198 36888 ft 467 kts 161°
2026-05-08 01:19 20.04521 -89.29786 36892 ft 467 kts 161°
2026-05-08 01:19 19.98437 -89.27376 36890 ft 467 kts 160°
2026-05-08 01:20 19.92351 -89.24958 36892 ft 467 kts 160°
2026-05-08 01:20 19.86264 -89.22542 36897 ft 467 kts 161°
2026-05-08 01:21 19.80179 -89.20129 36897 ft 467 kts 161°
2026-05-08 01:21 19.74135 -89.17734 36899 ft 467 kts 161°
2026-05-08 01:22 19.68014 -89.15306 36895 ft 467 kts 160°
2026-05-08 01:22 19.61929 -89.12892 36903 ft 467 kts 160°
2026-05-08 01:23 19.55885 -89.10495 36904 ft 467 kts 160°
2026-05-08 01:23 19.49802 -89.08085 36905 ft 467 kts 160°
2026-05-08 01:24 19.43718 -89.05677 36902 ft 467 kts 160°
2026-05-08 01:24 19.37634 -89.03271 36908 ft 467 kts 160°
2026-05-08 01:25 19.31544 -89.00865 36906 ft 467 kts 160°
2026-05-08 01:25 19.25449 -88.98460 36909 ft 467 kts 160°
2026-05-08 01:26 19.19362 -88.96060 36906 ft 467 kts 160°
2026-05-08 01:26 19.13268 -88.93658 36911 ft 467 kts 160°
2026-05-08 01:27 19.07176 -88.91259 36909 ft 467 kts 160°
2026-05-08 01:27 19.01084 -88.88862 36910 ft 467 kts 160°
2026-05-08 01:28 18.94993 -88.86468 36911 ft 467 kts 160°
2026-05-08 01:28 18.88900 -88.84074 36912 ft 467 kts 160°
2026-05-08 01:29 18.82811 -88.81684 36910 ft 467 kts 160°
2026-05-08 01:29 18.76764 -88.79312 36916 ft 467 kts 160°
2026-05-08 01:30 18.70673 -88.76926 36911 ft 467 kts 160°
2026-05-08 01:30 18.64586 -88.74542 36910 ft 467 kts 160°
2026-05-08 01:31 18.58500 -88.72160 36917 ft 467 kts 160°
2026-05-08 01:31 18.52409 -88.69779 36916 ft 467 kts 160°
2026-05-08 01:32 18.46322 -88.67400 36915 ft 467 kts 160°
2026-05-08 01:32 18.40229 -88.65020 36915 ft 467 kts 160°
2026-05-08 01:33 18.34141 -88.62645 36916 ft 467 kts 160°
2026-05-08 01:33 18.28050 -88.60269 36913 ft 467 kts 160°
2026-05-08 01:34 18.21960 -88.57896 36915 ft 467 kts 160°
2026-05-08 01:34 18.15869 -88.55524 36917 ft 467 kts 160°
2026-05-08 01:35 18.09779 -88.53153 36912 ft 467 kts 160°
2026-05-08 01:35 18.03681 -88.50783 36907 ft 467 kts 160°
2026-05-08 01:36 17.97591 -88.48416 36905 ft 467 kts 160°
2026-05-08 01:36 17.91499 -88.46042 36905 ft 467 kts 160°
2026-05-08 01:37 17.85408 -88.43661 36903 ft 467 kts 160°
2026-05-08 01:37 17.79312 -88.41280 36898 ft 467 kts 160°
2026-05-08 01:38 17.73216 -88.38901 36899 ft 468 kts 160°
2026-05-08 01:38 17.67112 -88.36521 36899 ft 468 kts 160°
2026-05-08 01:39 17.61008 -88.34142 36899 ft 468 kts 160°
2026-05-08 01:39 17.54899 -88.31765 36896 ft 468 kts 160°
2026-05-08 01:40 17.48772 -88.29435 36899 ft 469 kts 160°
2026-05-08 01:40 17.42687 -88.27121 36898 ft 469 kts 160°
2026-05-08 01:41 17.36558 -88.24791 36900 ft 469 kts 160°
2026-05-08 01:41 17.30429 -88.22463 36902 ft 469 kts 160°
2026-05-08 01:42 17.24296 -88.20134 36900 ft 469 kts 160°
2026-05-08 01:42 17.18167 -88.17809 36902 ft 468 kts 160°
2026-05-08 01:43 17.12039 -88.15488 36907 ft 469 kts 160°
2026-05-08 01:43 17.05908 -88.13168 36906 ft 468 kts 160°
2026-05-08 01:44 16.99783 -88.10852 36903 ft 468 kts 160°
2026-05-08 01:44 16.93660 -88.08538 36900 ft 468 kts 160°
2026-05-08 01:45 16.87513 -88.06282 36901 ft 468 kts 161°
2026-05-08 01:45 16.81358 -88.04041 36894 ft 468 kts 161°
2026-05-08 01:46 16.75212 -88.01803 36899 ft 468 kts 161°
2026-05-08 01:46 16.69072 -87.99569 36899 ft 467 kts 161°
2026-05-08 01:47 16.62973 -87.97351 36898 ft 467 kts 161°
2026-05-08 01:47 16.56839 -87.95122 36900 ft 467 kts 161°
2026-05-08 01:48 16.47641 -87.91782 36894 ft 466 kts 161°
2026-05-08 01:48 16.41509 -87.89558 36895 ft 466 kts 161°
2026-05-08 01:49 16.35381 -87.87336 36899 ft 466 kts 161°
2026-05-08 01:49 16.29254 -87.85116 36891 ft 466 kts 161°
2026-05-08 01:50 16.23128 -87.82898 36893 ft 466 kts 161°
2026-05-08 01:50 16.17010 -87.80685 36894 ft 466 kts 161°
2026-05-08 01:51 16.10916 -87.78422 36890 ft 466 kts 159°
2026-05-08 01:51 16.04836 -87.76061 36890 ft 466 kts 160°
2026-05-08 01:52 15.98766 -87.73717 36884 ft 465 kts 160°
2026-05-08 01:52 15.92695 -87.71375 36887 ft 466 kts 160°
2026-05-08 01:53 15.86621 -87.69033 36884 ft 465 kts 160°
2026-05-08 01:53 15.80550 -87.66693 36885 ft 466 kts 160°
2026-05-08 01:54 15.74475 -87.64354 36886 ft 466 kts 160°
2026-05-08 01:54 15.68440 -87.62032 36880 ft 466 kts 160°
2026-05-08 01:55 15.62366 -87.59696 36889 ft 466 kts 160°
2026-05-08 01:55 15.56292 -87.57361 36882 ft 465 kts 160°
2026-05-08 01:56 15.50224 -87.55030 36889 ft 465 kts 160°
2026-05-08 01:56 15.44163 -87.52704 36899 ft 464 kts 160°
2026-05-08 01:57 15.38103 -87.50379 36912 ft 464 kts 160°
2026-05-08 01:57 15.32055 -87.48060 36917 ft 463 kts 160°
2026-05-08 01:58 15.26009 -87.45744 36930 ft 463 kts 160°
2026-05-08 01:58 15.19966 -87.43430 36931 ft 463 kts 160°
2026-05-08 01:59 15.13922 -87.41117 36936 ft 463 kts 160°
2026-05-08 01:59 15.07878 -87.38806 36937 ft 463 kts 160°
2026-05-08 02:00 15.02852 -87.36884 36945 ft 463 kts 160°
2026-05-08 02:00 14.96803 -87.34574 36950 ft 464 kts 160°
2026-05-08 02:01 14.90747 -87.32262 36954 ft 464 kts 160°
2026-05-08 02:01 14.83702 -87.29574 36966 ft 464 kts 160°
2026-05-08 02:02 14.78627 -87.27639 36968 ft 464 kts 160°
2026-05-08 02:02 14.72565 -87.25328 36981 ft 464 kts 160°
2026-05-08 02:03 14.66501 -87.23019 36991 ft 464 kts 160°
2026-05-08 02:03 14.60434 -87.20709 37002 ft 464 kts 160°
2026-05-08 02:04 14.54369 -87.18401 37019 ft 465 kts 160°
2026-05-08 02:04 14.48345 -87.16111 37029 ft 464 kts 160°
2026-05-08 02:05 14.42317 -87.13707 37047 ft 465 kts 158°
2026-05-08 02:05 14.36345 -87.11145 37077 ft 465 kts 158°
2026-05-08 02:06 14.30365 -87.08600 37096 ft 465 kts 158°
2026-05-08 02:06 14.24375 -87.06053 37112 ft 466 kts 158°
2026-05-08 02:07 14.18386 -87.03508 37120 ft 466 kts 158°
2026-05-08 02:07 14.12396 -87.00964 37117 ft 466 kts 158°
2026-05-08 02:08 14.06405 -86.98422 37107 ft 466 kts 158°
2026-05-08 02:08 14.00411 -86.95879 37093 ft 466 kts 158°
2026-05-08 02:09 13.94423 -86.93341 37060 ft 465 kts 158°
2026-05-08 02:09 13.88440 -86.90805 37006 ft 465 kts 158°
2026-05-08 02:10 13.82463 -86.88275 36983 ft 464 kts 158°
2026-05-08 02:10 13.76486 -86.85745 36969 ft 464 kts 158°
2026-05-08 02:11 13.70519 -86.83221 36957 ft 464 kts 158°
2026-05-08 02:11 13.64548 -86.80696 36956 ft 464 kts 158°
2026-05-08 02:12 13.58570 -86.78171 36950 ft 465 kts 158°
2026-05-08 02:12 13.52586 -86.75644 36946 ft 465 kts 158°
2026-05-08 02:13 13.46596 -86.73115 36948 ft 465 kts 158°
2026-05-08 02:13 13.40599 -86.70586 36947 ft 466 kts 158°
2026-05-08 02:14 13.34595 -86.68054 36945 ft 467 kts 158°
2026-05-08 02:14 13.28586 -86.65522 36939 ft 467 kts 158°
2026-05-08 02:15 13.22577 -86.62992 36941 ft 467 kts 158°
2026-05-08 02:15 13.16563 -86.60460 36939 ft 467 kts 158°
2026-05-08 02:16 13.10552 -86.57930 36935 ft 467 kts 158°
2026-05-08 02:16 13.04540 -86.55401 36931 ft 467 kts 158°
2026-05-08 02:17 12.98537 -86.52874 36923 ft 467 kts 158°
2026-05-08 02:17 12.92568 -86.50364 36924 ft 467 kts 158°
2026-05-08 02:18 12.86560 -86.47838 36915 ft 466 kts 158°
2026-05-08 02:18 12.80558 -86.45316 36912 ft 467 kts 158°
2026-05-08 02:19 12.74548 -86.42791 36910 ft 467 kts 158°
2026-05-08 02:19 12.68539 -86.40269 36898 ft 467 kts 158°
2026-05-08 02:20 12.62525 -86.37746 36895 ft 467 kts 158°
2026-05-08 02:20 12.56514 -86.35225 36894 ft 467 kts 158°
2026-05-08 02:21 12.50500 -86.32704 36883 ft 467 kts 158°
2026-05-08 02:21 12.44481 -86.30183 36883 ft 467 kts 158°
2026-05-08 02:22 12.38466 -86.27664 36883 ft 467 kts 158°
2026-05-08 02:22 12.32444 -86.25144 36884 ft 468 kts 158°
2026-05-08 02:23 12.26416 -86.22623 36888 ft 468 kts 158°
2026-05-08 02:23 12.20423 -86.20117 36888 ft 468 kts 158°
2026-05-08 02:24 12.14397 -86.17604 36889 ft 468 kts 158°
2026-05-08 02:24 12.08343 -86.15142 36890 ft 468 kts 158°
2026-05-08 02:25 12.02300 -86.12680 36888 ft 468 kts 158°
2026-05-08 02:25 11.96256 -86.10219 36883 ft 467 kts 158°
2026-05-08 02:26 11.90227 -86.07764 36886 ft 466 kts 159°
2026-05-08 02:26 11.84207 -86.05315 36886 ft 466 kts 159°
2026-05-08 02:27 11.78192 -86.02869 36888 ft 465 kts 159°
2026-05-08 02:27 11.72185 -86.00427 36890 ft 464 kts 159°
2026-05-08 02:28 11.66186 -85.97990 36892 ft 464 kts 159°
2026-05-08 02:28 11.60194 -85.95556 36896 ft 464 kts 159°
2026-05-08 02:29 11.54196 -85.93121 36894 ft 464 kts 159°
2026-05-08 02:29 11.48192 -85.90686 36900 ft 465 kts 159°
2026-05-08 02:30 11.42185 -85.88249 36899 ft 465 kts 159°
2026-05-08 02:30 11.36171 -85.85812 36901 ft 465 kts 159°
2026-05-08 02:31 11.30151 -85.83373 36904 ft 466 kts 159°
2026-05-08 02:31 11.24125 -85.80931 36911 ft 466 kts 159°
2026-05-08 02:32 11.18100 -85.78519 36911 ft 465 kts 159°
2026-05-08 02:32 11.12076 -85.76119 36918 ft 465 kts 159°
2026-05-08 02:33 11.06060 -85.73713 36918 ft 464 kts 159°
2026-05-08 02:33 11.00065 -85.71252 36923 ft 464 kts 159°
2026-05-08 02:34 10.94112 -85.68815 36926 ft 464 kts 159°
2026-05-08 02:34 10.88081 -85.66348 36928 ft 464 kts 158°
2026-05-08 02:35 10.82085 -85.63896 36919 ft 464 kts 158°
2026-05-08 02:35 10.76134 -85.61464 36906 ft 464 kts 158°
2026-05-08 02:36 10.70242 -85.59056 36517 ft 448 kts 158°
2026-05-08 02:36 10.67351 -85.57875 35932 ft 447 kts 158°
2026-05-08 02:36 10.64469 -85.56698 35370 ft 446 kts 157°
2026-05-08 02:37 10.61686 -85.55327 34797 ft 443 kts 145°
2026-05-08 02:37 10.59381 -85.53287 34262 ft 439 kts 129°
2026-05-08 02:37 10.57715 -85.50720 33813 ft 433 kts 117°
2026-05-08 02:37 10.56323 -85.48022 33296 ft 430 kts 116°
2026-05-08 02:38 10.54965 -85.45331 32779 ft 427 kts 116°
2026-05-08 02:38 10.53638 -85.42648 32298 ft 423 kts 115°
2026-05-08 02:38 10.52335 -85.39983 31830 ft 420 kts 115°
2026-05-08 02:38 10.51048 -85.37332 31369 ft 416 kts 115°
2026-05-08 02:39 10.49774 -85.34704 30908 ft 413 kts 115°
2026-05-08 02:39 10.48511 -85.32098 30472 ft 410 kts 115°
2026-05-08 02:39 10.47257 -85.29511 30038 ft 407 kts 115°
2026-05-08 02:39 10.46012 -85.26943 29534 ft 404 kts 115°
2026-05-08 02:40 10.44777 -85.24395 29076 ft 399 kts 115°
2026-05-08 02:40 10.43558 -85.21882 28665 ft 395 kts 115°
2026-05-08 02:40 10.42351 -85.19394 28259 ft 390 kts 115°
2026-05-08 02:40 10.41159 -85.16937 27859 ft 386 kts 115°
2026-05-08 02:41 10.39979 -85.14505 27431 ft 382 kts 114°
2026-05-08 02:41 10.38809 -85.12093 27022 ft 379 kts 114°
2026-05-08 02:41 10.37648 -85.09703 26647 ft 375 kts 114°
2026-05-08 02:41 10.36500 -85.07337 26280 ft 372 kts 114°
2026-05-08 02:42 10.35362 -85.04995 25911 ft 368 kts 114°
2026-05-08 02:42 10.34233 -85.02672 25546 ft 365 kts 114°
2026-05-08 02:42 10.33112 -85.00365 25169 ft 363 kts 114°
2026-05-08 02:42 10.31998 -84.98073 24825 ft 361 kts 114°
2026-05-08 02:43 10.30893 -84.95800 24466 ft 358 kts 114°
2026-05-08 02:43 10.29792 -84.93533 24100 ft 357 kts 114°
2026-05-08 02:43 10.28683 -84.91255 23428 ft 364 kts 114°
2026-05-08 02:43 10.27554 -84.88933 22761 ft 368 kts 114°
2026-05-08 02:44 10.26416 -84.86594 22132 ft 371 kts 114°
2026-05-08 02:44 10.25267 -84.84233 21465 ft 375 kts 115°
2026-05-08 02:44 10.24104 -84.81844 20780 ft 380 kts 115°
2026-05-08 02:44 10.22929 -84.79429 20096 ft 384 kts 115°
2026-05-08 02:45 10.21740 -84.76986 19406 ft 388 kts 115°
2026-05-08 02:45 10.20553 -84.74551 18706 ft 392 kts 115°
2026-05-08 02:45 10.19338 -84.72055 17936 ft 397 kts 115°
2026-05-08 02:45 10.18109 -84.69532 17142 ft 400 kts 115°
2026-05-08 02:46 10.16874 -84.66997 16400 ft 401 kts 115°
2026-05-08 02:46 10.15633 -84.64466 15669 ft 401 kts 117°
2026-05-08 02:46 10.13949 -84.62188 14769 ft 409 kts 135°
2026-05-08 02:46 10.11570 -84.60611 14257 ft 407 kts 149°
2026-05-08 02:47 10.09125 -84.59175 13454 ft 408 kts 147°
2026-05-08 02:47 10.06695 -84.57714 12840 ft 403 kts 147°
2026-05-08 02:47 10.04301 -84.56267 12300 ft 398 kts 147°
2026-05-08 02:47 10.01907 -84.54821 11461 ft 402 kts 148°
2026-05-08 02:48 9.99525 -84.53380 10940 ft 396 kts 148°
2026-05-08 02:48 9.97195 -84.51970 10379 ft 382 kts 148°
2026-05-08 02:48 9.94944 -84.50607 9598 ft 373 kts 148°
2026-05-08 02:48 9.92789 -84.49209 8773 ft 363 kts 139°
2026-05-08 02:49 9.91606 -84.48040 8286 ft 355 kts 133°
2026-05-08 02:49 9.88885 -84.46362 7576 ft 339 kts 167°
2026-05-08 02:49 9.86607 -84.46396 7293 ft 322 kts 195°
2026-05-08 02:49 9.84748 -84.47479 7160 ft 302 kts 225°
2026-05-08 02:50 9.83683 -84.49217 7027 ft 282 kts 248°
2026-05-08 02:50 9.83218 -84.50417 6951 ft 270 kts 249°
2026-05-08 02:50 9.82610 -84.52172 6861 ft 258 kts 260°
2026-05-08 02:50 9.82816 -84.53912 6724 ft 247 kts 298°
2026-05-08 02:51 9.83949 -84.55110 6593 ft 233 kts 336°
2026-05-08 02:51 9.85472 -84.55303 6460 ft 217 kts 17°
2026-05-08 02:51 9.86647 -84.54480 6326 ft 203 kts 58°
2026-05-08 02:51 9.87251 -84.53220 6252 ft 199 kts 67°
2026-05-08 02:52 9.87782 -84.51909 6183 ft 202 kts 68°
2026-05-08 02:52 9.88292 -84.50582 6106 ft 202 kts 69°
2026-05-08 02:52 9.88797 -84.49253 6031 ft 202 kts 69°
2026-05-08 02:52 9.89297 -84.47927 5961 ft 201 kts 69°
2026-05-08 02:53 9.89795 -84.46599 5950 ft 201 kts 69°
2026-05-08 02:53 9.90291 -84.45273 5975 ft 201 kts 69°
2026-05-08 02:53 9.90789 -84.43943 5983 ft 202 kts 69°
2026-05-08 02:53 9.91285 -84.42615 5992 ft 201 kts 69°
2026-05-08 02:54 9.91780 -84.41290 5987 ft 201 kts 69°
2026-05-08 02:54 9.92275 -84.39963 6001 ft 201 kts 69°
2026-05-08 02:54 9.92770 -84.38636 5963 ft 201 kts 69°
2026-05-08 02:54 9.93265 -84.37310 5848 ft 201 kts 69°
2026-05-08 02:55 9.93760 -84.35982 5659 ft 201 kts 69°
2026-05-08 02:55 9.94730 -84.33381 5215 ft 188 kts 69°
2026-05-08 02:55 9.95179 -84.32176 4980 ft 176 kts 68°
2026-05-08 02:56 9.95598 -84.31051 4760 ft 164 kts 69°
2026-05-08 02:56 9.95987 -84.30007 4596 ft 154 kts 68°
2026-05-08 02:56 9.96358 -84.29014 4397 ft 147 kts 68°
2026-05-08 02:56 9.96711 -84.28064 4198 ft 142 kts 68°
2026-05-08 02:57 9.97062 -84.27121 4033 ft 146 kts 69°
2026-05-08 02:57 9.97438 -84.26114 3844 ft 156 kts 69°
2026-05-08 02:57 9.97819 -84.25094 3615 ft 152 kts 70°
2026-05-08 02:57 9.98179 -84.24129 3425 ft 141 kts 71°
2026-05-08 02:58 9.98514 -84.23231 3214 ft 133 kts 70°
2026-05-08 02:58 9.98841 -84.22361 3034 ft 130 kts 71°
2026-05-08 02:58 9.99144 -84.21511 2975 ft 127 kts 69°
2026-05-08 02:58 9.99392 -84.20885 3000 ft 64 kts 69°
2026-05-08 02:59 9.99489 -84.20624 3012 ft 15 kts 69°
2026-05-08 02:59 9.99539 -84.20489 3022 ft 18 kts 69°
2026-05-08 02:59 9.99640 -84.20433 3021 ft 18 kts 30°
2026-05-08 02:59 9.99710 -84.20417 3022 ft 1 kts 341°
2026-05-08 03:00 9.99712 -84.20417 3023 ft 0 kts 341°